Location: Evansville
(37.9747°N, 87.5558°W)
Time: 12:31:16
(UTC-06:00)

ARIANE 6 FM1 Upper Stage - Visible Passes

Search period start: 12 December 2025 00:00
Search period end: 22 December 2025 00:00
Orbit: 522 x 611 km, 62.0° (Epoch: 12 December)

Date Brightness Start Highest point End Pass type
(mag) Time Alt. Az. Time Alt. Az. Time Alt. Az.
12 Dec 6.2 05:19:27 10° SE 05:20:53 12° ESE 05:22:17 10° E visible
13 Dec 5.6 05:18:19 10° SSE 05:21:08 18° ESE 05:23:55 10° ENE visible
14 Dec 4.8 05:17:55 10° S 05:21:26 28° ESE 05:24:53 10° ENE visible
15 Dec 3.8 05:17:51 10° SSW 05:21:44 44° ESE 05:25:33 10° NE visible
16 Dec 2.8 05:18:01 10° SSW 05:22:05 71° ESE 05:26:04 10° NE visible
17 Dec 2.4 05:20:18 27° SW 05:22:26 73° NW 05:26:27 10° NNE visible
18 Dec 2.8 05:22:44 46° WNW 05:22:50 46° NW 05:26:42 10° NNE visible
19 Dec 3.8 05:24:27 26° NNW 05:24:27 26° NNW 05:26:51 10° NNE visible
20 Dec 4.6 05:25:44 15° N 05:25:44 15° N 05:26:53 10° N visible
